Regional Weather Roundup
Issued by NWS Upton, NY

Current Version | Previous Version | Graphics & Text | Print | Product List | Glossary Off
Versions: 1 2 3 4 5 6 7 8 9 10 11 12 13 14 15 16 17 18 19 20 21 22 23 24 25 26 27 28 29 30

000
ASUS41 KOKX 270004
RWROKX

REGIONAL WEATHER ROUNDUP
NATIONAL WEATHER SERVICE NEW YORK NY
800 PM EDT FRI AUG 26 2016

NOTE: "FAIR" INDICATES FEW OR NO CLOUDS BELOW 12,000 FEET WITH NO
SIGNIFICANT WEATHER AND/OR OBSTRUCTIONS TO VISIBILITY.

NYZ071-072-176-178-NJZ106-104-270100-
NEW YORK CITY METRO AREA

CITY           SKY/WX    TMP DP  RH WIND       PRES   REMARKS
Central Park     N/A     84  61  45 MISG        N/A
LaGuardia APRT MOCLDY    86  67  52 NW13      30.00R
Kennedy INTL   PTCLDY    86  70  58 N13       30.01R HX  90
Newark/Liberty PTCLDY    87  63  44 NW14G20   30.01R
Bronx Bot Gard   N/A     84  63  48 N3        30.01S
Wall St Helipt CLEAR     86  64  48 CALM      30.02R
Teterboro      CLEAR     85  62  46 NW8       29.99S
$$

NYZ177-179-078>081-270100-
LONG ISLAND NEW YORK

CITY           SKY/WX    TMP DP  RH WIND       PRES   REMARKS
Farmingdale    CLEAR     86  65  49 N6        30.00R
MacArthur/ISP  PTCLDY    82  67  60 N6        29.99R
Shirley        CLEAR     79  65  62 CALM      30.00R
Riverhead      NOT AVBL
Westhampton    CLEAR     76  72  87 CALM      30.01R
Southampton      N/A     75  73  94 SW1       29.95S
Bridgehampton    N/A     77  73  88 CALM      29.98R
East Hampton   FAIR      76  73  88 CALM      29.99R
Montauk          N/A     77  73  87 CALM      30.00R
$$

NYZ052-065-067-270100-
HUDSON VALLEY

CITY           SKY/WX    TMP DP  RH WIND       PRES   REMARKS
White Plains   CLEAR     81  66  60 NW5       30.02R
Newburgh       NOT AVBL
Montgomery     CLEAR     79  64  60 NW5       30.04R
Poughkeepsie   CLEAR     76  66  71 N3        30.02R
Albany         PTCLDY    78  60  53 W13       30.04R
$$

NJZ001-105-106-008-010-013-015-019>022-104-270100-
NEW JERSEY

CITY           SKY/WX    TMP DP  RH WIND       PRES   REMARKS
Newark/Liberty PTCLDY    87  63  44 NW14G20   30.01R
Teterboro      CLEAR     85  62  46 NW8       29.99S
Caldwell       CLEAR     81  67  62 CALM      30.03R
Morristown     PTCLDY    79  66  65 NW3       30.03R
Somerville     CLEAR     79  67  66 CALM      30.01R
Linden         FAIR      86  62  44 N7        30.03R
Sussex         CLEAR     78  66  66 NW5       30.06R
Abdover          N/A     73  67  81 CALM      30.06S
Trenton        CLEAR     83  66  56 N6        30.02R
Millville      CLEAR     79  73  82 W3        30.02R
Atlantic City  PTCLDY    86  69  56 W6        30.01R HX  90
Wrightstown    CLEAR     82  67  60 NW6       29.99R
Toms River     CLEAR     85  69  58 NW3       30.01R
Belmar         CLOUDY    86  68  54 N6        30.02R
$$

PAZ047>061-062-071-270100-
EASTERN PENNSYLVANIA

CITY           SKY/WX    TMP DP  RH WIND       PRES   REMARKS
Philadelphia   PTCLDY    89  64  43 NW9       30.02R HX  90
Allentown      CLEAR     79  63  57 N3        30.05R
Scranton       CLEAR     79  63  57 N3        30.09R
$$

CTZ002-004>006-009-010-012-RIZ004-006-007-MAZ004-011-015-270100-
SOUTHERN NEW ENGLAND
 IN CT

CITY           SKY/WX    TMP DP  RH WIND       PRES   REMARKS
Bradley INTL   PTCLDY    78  65  63 NW8       30.00R
Hartford       CLEAR     86  63  45 NW5       29.99R
Danbury        CLEAR     73  67  81 CALM      30.04R
Wtrbury/Oxford PTCLDY    73  59  60 N6        30.07R
Bridgeport     CLEAR     85  63  47 N6        29.99R
Meriden        CLEAR     78  65  63 CALM      30.00R
New Haven      PTCLDY    84  60  44 NW5       30.00R
Chester        FAIR      79  66  65 NW6       30.01R
Groton         CLEAR     77  72  84 CALM      29.98R
Wilimantic     CLEAR     78  72  81 NE3       30.00R

 IN RI

CITY           SKY/WX    TMP DP  RH WIND       PRES   REMARKS
Providence     PTCLDY    84  67  56 NW5       29.98R
Block Island   PTCLDY    75  71  87 SW8       29.99S
Westerly       CLEAR     79  69  71 S5        29.99R
 IN MA

CITY           SKY/WX    TMP DP  RH WIND       PRES   REMARKS
Boston         PTCLDY    86  65  49 NW6       29.97R
Worcester      CLEAR     75  63  66 NW6       30.04R
Westfield      CLEAR     80  64  58 NW12      30.00R
Provincetown   CLEAR     73  71  93 SW6       29.98R
Nantucket      CLOUDY    73  72  96 SW8       29.98S
$$

ANZ330-335-338-340-345-350-353-355-270100-
COASTAL MARINE OBSERVATIONS


STATION/POSITION TIME  SKY/WX   TEMP    WIND        PRES    VSBY  WAVE
                                AIR SEA DIR/SP/G                  HT/PER
                 (UTC)          (F)     (DEG/KT/KT) (MB)    (MI)  (FT/S)
NY HARB ENTRANCE 2250            80 77  240/  6/  8 1015.3          3/ 6
20S FIRE ISLAND  2250            77 74  240/  6/ 10 1015.1          3/ 6
GREAT SOUTH BAY  2300            85 79  330/  6/ 12   N/A
23 SSW MONTAUK P 2250            77 75  240/  8/ 10 1015.5          3/ 6
15 E BARNEGAT LI 2300               77                N/A           3/ 6
HUDSON CANYON    2250            80 79              1015.5          4/ 5
KINGS POINT      2300            83 77              1015.6
EXECUTION ROCKS  2300            85     330/  6/  8   N/A
CENTRAL LI SOUND 2300            82 78  320/  8/ 10   N/A           1
EASTERN LI SOUND 2300            75 71  200/  4/  4   N/A
ROBBINS REEF     2300            88     340/ 10/ 12 1015.3
$$


>>>>>>>>>>>>>>>>>>>>>>>>>>>> KEY <<<<<<<<<<<<<<<<<<<<<<<<<<<
>                                                          <
>     SKY/WX - Sky Condition/Present Weather               <
>     TMP    - Temperature in Fahrenheit                   <
>     DP     - Dew Point in Fahrenheit                     <
>     RH     - Relative Humidity in Percent                <
>     WIND   - Direction (from) and Speed in MPH           <
>     PRES   - Mean Sea Level Pressure (inches of Hg)      <
>     WCI    - Wind Chill Index                            <
>     VSB    - VISIBILITY IN MILES                         <
>     HX     - HEAT INDEX                                  <
>     TC     - TEMPERATURE IN CELSIUS                      <
>     VRB    - VARIABLE WIND DIRECTION                     <
>                                                          <
>>>>>>>>>>>>>>>>>>>>>>>>>>>> KEY <<<<<<<<<<<<<<<<<<<<<<<<<<<




USA.gov is the U.S. government's official web portal to all federal, state and local government web resources and services.